Location: Bad Dürkheim
(49.4618°N, 8.1724°E)
Time: 20:32:20
(UTC+00:00)

ATLAS 3B R/B - Pass Details

Date: 14 June 2025
Orbit: 935 x 1258 km, 63.8° (Epoch: 16 July)

Event Time Altitude Azimuth Distance (km) Brightness Sun altitude
Rises 23:00:59 0° 313° (NW) 4,204 6.6 -17.0°
Reaches altitude 10° 23:03:57 10° 320° (NW) 3,246 6.0 -17.0°
Maximum altitude 23:11:33 47° 33° (NNE) 1,612 4.0 -17.1°
Drops below altitude 10° 23:18:57 10° 106° (ESE) 3,171 5.0 -17.2°
Sets 23:21:48 0° 112° (ESE) 4,100 5.5 -17.2°
